Location: Bh?mavarapp?du
(16.7041°N, 80.6518°E)
Time: 07:09:32
(UTC+00:00)

NOSS 3-2 (A) - Pass Details

Date: 21 April 2021
Orbit: 779 x 1428 km, 63.4° (Epoch: 18 April)

Event Time Altitude Azimuth Distance (km) Brightness Sun altitude
Rises 12:59:11 0° 341° (NNW) 4,238 7.3 -2.0°
Reaches altitude 10° 13:01:57 10° 344° (NNW) 3,340 6.7 -2.6°
Maximum altitude 13:10:12 63° 65° (ENE) 1,542 4.4 -4.5°
Drops below altitude 10° 13:18:53 10° 144° (SE) 3,520 5.9 -6.5°
Sets 13:21:51 0° 147° (SSE) 4,479 6.5 -7.2°
